Starlink 31607

operational
NORAD ID: 59394 Int'l Des: 2024-062 Owner: SPXS Country: US Constellation: starlink
LEOCIRCULAR

About Starlink 31607

Description loading...

Live Position

Loading 3D Globe...

Upcoming Passes

Altitude History

Altitude vs Time

uPlot chart will show altitude changes over time

Two-Line Element Set

1 59394U 24062W 26035.25744805 .00000755 00000-0 37616-4 0 9999
2 59394 53.1604 50.8848 0001224 91.6651 268.4490 15.30190626104541
Epoch: Feb 4, 2026 • Age: 14 hours

Current Status

Altitude 479.5 km
Velocity 7.63 km/s
Sub-Earth Point 46.27°N, 15.74°E
Launch Date Apr 2, 2024
Age 1.8 years
Type internet

Technical Details

Classification Payload
Mass 730.00 kg
Dry Mass 700.00 kg
Total Mass 730.00 kg
Length 0.30 m
Diameter 4.10 m
Span 29.00 m
Shape Box + pan
Manufacturer SPXS
Bus Type Starlink V2M
Phase Status In Orbit
Owner/State SPXS/US

Large Constellations

Loading constellations...